Flight Track Log - Related Links

Times and Time Zones

All times are in EDT time to prevent confusion due to time zone crossing. See the N449ND flight status page for this flight to view local times or setup timezone preferences in your user account.

Time Position Orientation Groundspeed Altitude Reporting Facility
EDT Latitude Longitude Course Direction KTS MPH feet Rate Location/Type
Thu 10:11:55 PM 28.2667 -81.4167 142° Southeast 71 82 1,400  Level Orlando TRACON
Thu 10:12:55 PM 28.2500 -81.4000 139° Southeast 64 74 2,000 579 Climbing Orlando TRACON
Thu 10:13:49 PM 28.2500 -81.3833 90° East 65 75 2,500 526 Climbing Orlando TRACON
Thu 10:14:49 PM 28.2333 -81.3667 139° Southeast 69 79 3,000 250 Climbing Orlando TRACON
Thu 10:15:49 PM 28.2167 -81.3500 139° Southeast 89 102 3,000  Level Orlando TRACON
Thu 10:16:00 PM 28.2772 -81.3621 101° East  Level FlightAware Approximate
Thu 10:16:49 PM 28.2000 -81.3167 120° Southeast 90 104 3,000  Level Orlando TRACON
Thu 10:17:49 PM 28.1833 -81.3000 139° Southeast 86 99 3,000  Level Orlando TRACON
Thu 10:18:55 PM 28.1667 -81.2833 139° Southeast 84 97 3,000  Level Orlando TRACON
Thu 10:19:55 PM 28.1500 -81.2500 120° Southeast 88 101 3,000  Level Orlando TRACON
Thu 10:20:55 PM 28.1333 -81.2333 139° Southeast 91 105 3,000  Level Orlando TRACON
Thu 10:21:55 PM 28.1167 -81.2167 139° Southeast 90 104 3,000  Level Orlando TRACON
Thu 10:23:01 PM 28.1000 -81.1833 120° Southeast 89 102 3,000  Level Orlando TRACON
Thu 10:24:01 PM 28.1000 -81.1667 90° East 87 100 3,000  Level Orlando TRACON
Thu 10:26:17 PM 28.0656 -81.1208 130° Southeast 86 99 3,000  Level Miami Center
Thu 10:27:18 PM 28.0492 -81.0939 125° Southeast 86 99 3,000  Level Miami Center
Thu 10:28:19 PM 28.0353 -81.0731 127° Southeast 87 100 3,000  Level Miami Center
Thu 10:29:21 PM 28.0214 -81.0497 124° Southeast 86 99 3,000 -49 Level Miami Center
Thu 10:30:22 PM 28.0072 -81.0261 124° Southeast 87 100 2,900  Descending Miami Center
Thu 10:31:22 PM 27.9956 -81.0044 121° Southeast 85 98 3,000  Climbing Miami Center
Thu 10:32:24 PM 27.9808 -80.9814 126° Southeast 85 98 2,900  Descending Miami Center
Thu 10:33:25 PM 27.9681 -80.9606 125° Southeast 85 98 3,000 49 Climbing Miami Center
Thu 10:34:26 PM 27.9533 -80.9378 126° Southeast 85 98 3,000  Level Miami Center
Thu 10:35:26 PM 27.9369 -80.9150 129° Southeast 85 98 3,000  Level Miami Center
Thu 10:36:27 PM 27.9186 -80.8967 139° Southeast 89 102 3,000  Level Miami Center
Thu 10:37:29 PM 27.8992 -80.8772 139° Southeast 90 104 3,000 -49 Level Miami Center
Thu 10:38:30 PM 27.8803 -80.8575 137° Southeast 90 104 2,900  Descending Miami Center
Thu 10:39:30 PM 27.8625 -80.8397 139° Southeast 89 102 3,000 49 Climbing Miami Center
Thu 10:40:32 PM 27.8403 -80.8189 140° Southeast 94 108 3,000  Level Miami Center
Thu 10:41:34 PM 27.8139 -80.8031 152° Southeast 110 127 3,000 -49 Level Miami Center
Thu 10:42:34 PM 27.7883 -80.7964 167° South 103 119 2,900 -500 Descending Miami Center
Thu 10:43:34 PM 27.7578 -80.7889 168° South 103 119 2,000 -446 Descending Miami Center
Thu 10:44:35 PM 27.7319 -80.7819 167° South 94 108 2,000  Level Miami Center
Thu 10:45:35 PM 27.7050 -80.7750 167° South 98 113 2,000 -49 Level Miami Center
Thu 10:46:37 PM 27.6772 -80.7669 166° South 99 114 1,900  Descending Miami Center
Thu 10:47:37 PM 27.6517 -80.7597 166° South 99 114 2,000 49 Climbing Miami Center
Thu 10:48:39 PM 27.6242 -80.7517 165° South 98 113 2,000  Level Miami Center
Thu 10:49:39 PM 27.6008 -80.7386 154° Southeast 98 113 2,000  Level Miami Center
Thu 10:50:40 PM 27.5747 -80.7250 155° Southeast 98 113 2,000  Level Miami Center
Thu 10:51:40 PM 27.5489 -80.7100 153° Southeast 99 114 2,000  Level Miami Center
Thu 10:52:44 PM 27.5244 -80.6972 155° Southeast 98 113 2,000  Level Miami Center
Thu 10:53:45 PM 27.5014 -80.6817 149° Southeast 97 112 2,000  Level Miami Center
Thu 10:54:45 PM 27.5028 -80.6544 87° East 95 109 2,000  Level Miami Center

Login

Don't have an account? Register now (free) for customized features, flight alerts, and more!